ARABSAT-5A (36745 NORAD) Tracking and Keplerian Element Data

This shows tracking and keplerian element data for the satellite.

Feedback or suggestion? Click here.




ElementValue
Catalog36745
NameARABSAT-5A
Epoch Orbit5364
Epoch Day34.6896555
Epoch Year2025
RAAN49.3424
Inclination0.0564
Eccentricity0.0003273
Argument of Perigee293.1613
Mean Anonmoly70.3485
Mean Motion1.00268958
Decay Rate1.58E-06
L11 36745U 10032B 25034.68965550 .00000158 00000+0 00000+0 0 9991
L22 36745 0.0564 49.3424 0003273 293.1613 70.3485 1.00268958 53642



Live tracking and technical data element details for ARABSAT-5A (NORAD 36745). ARABSAT-5A can be tracked NOW for your location showing map with azimuth and elevation plus other details from your city location.







IsCatalogInMostPopularTable: catalog: 36745, numindb: 391
Update: records affected: 1



GetName: 36745 ARABSAT-5A

Hit Count: updated at: Sat, 24 May 2025 16:44:00 GMT